sat.trackr.live / text

‹ back to catalog

STARLINK-36688

NORAD 67656 · 2026-022J

PAYLOAD ACTIVE UNKNOWN

§ Identity

Operator
Country
US
Launch date
2026-02-02
Launch site
AFWTR
Launch vehicle
Mass (kg)
RCS (m²)

Purposes: comms

External: N2YO · Heavens-Above · Gunter

§ Orbital elements

Epoch: 2026-09-18T21:16:06.746880Z

Period
93.90 min
Inclination
97.2839°
Eccentricity
0.0000768
Mean motion
15.33465972 rev/d
Perigee alt
465.0 km
Apogee alt
466.0 km
Semi-major
6,843.6 km
B*
5.4092e-5
RAAN
293.5327°
Arg perigee
130.0860°
Mean anomaly
230.0451°
Rev number
3,518

§ Raw data

STARLINK-366881 67656U 26022J   26261.88618920  .00001673  00000+0  54092-4 0  99912 67656  97.2839 293.5327 0000768 130.0860 230.0451 15.33465972 35187

JSON: /api/v1/satellites/67656 · /tle

For live sub-satellite position, see the globe view (requires WebGL).

§ Visibility from observer

Set your observer location to see the next 7 days of passes ≥ 10°. The values pass through the URL so the page stays shareable.

No JS? Fill the form by hand. The geolocation button needs JavaScript.